WetterOnline ( http://www.wetteronline.de )

Wetter aktuell Schongau

Aktuelles Wetter: Hohenpeißenberg (986m)

6-stündlich | Neueste Meldungen
Ortszeit Temperatur Wetter
Mi, 23.01. 13:00 -7.3° C bewölkt
Mi, 23.01. 7:00 -9.9° C Nebel
Mi, 23.01. 1:00 -8.0° C Nebel
Di, 22.01. 19:00 -6.9° C Nebel
Di, 22.01. 13:00 -4.8° C bedeckt
Di, 22.01. 7:00 -7.6° C Nebel
Di, 22.01. 1:00 -5.8° C Nebel
Mo, 21.01. 19:00 -5.0° C Nebel
Ortszeit Temperatur Wetter
Mi, 23.01. 14:10 -6.8° C bewölkt
Mi, 23.01. 14:00 -7.1° C bedeckt
Mi, 23.01. 13:50 -7.1° C bedeckt
Mi, 23.01. 13:40 -6.8° C bewölkt
Mi, 23.01. 13:30 -6.5° C bewölkt
Mi, 23.01. 13:20 -6.5° C bewölkt
Mi, 23.01. 13:00 -7.3° C bewölkt
Mi, 23.01. 12:30 -7.7° C wolkig
Mi, 23.01. 12:00 -6.8° C bewölkt
Mi, 23.01. 11:30 -4.9° C bewölkt
Mi, 23.01. 11:00 -7.3° C wolkig
Ortszeit Relative Feuchte Sichtweite
Mi, 23.01. 13:00 89% 3.9 km
Mi, 23.01. 7:00 95% 100 m
Mi, 23.01. 1:00 95% 100 m
Di, 22.01. 19:00 97% 0.4 km
Di, 22.01. 13:00 88% 3.6 km
Di, 22.01. 7:00 98% 100 m
Di, 22.01. 1:00 98% <100 m
Mo, 21.01. 19:00 98% 0.4 km
Ortszeit Relative Feuchte Sichtweite
Mi, 23.01. 14:10 89% -
Mi, 23.01. 14:00 89% 4.5 km
Mi, 23.01. 13:50 89% -
Mi, 23.01. 13:40 89% -
Mi, 23.01. 13:30 88% 3.6 km
Mi, 23.01. 13:20 88% -
Mi, 23.01. 13:00 89% 3.9 km
Mi, 23.01. 12:30 90% 1.8 km
Mi, 23.01. 12:00 89% 2.8 km
Mi, 23.01. 11:30 86% 2.8 km
Mi, 23.01. 11:00 89% 4.6 km
Ortszeit Niederschlagsmenge Niederschlagsart
Mi, 23.01. 13:00 0.0 l/m2 in 6 Std. -
Mi, 23.01. 7:00 0.0 l/m2 in 12 Std. -
Mi, 23.01. 1:00 0.0 l/m2 in 6 Std. -
Di, 22.01. 19:00 0.0 l/m2 in 12 Std. -
Di, 22.01. 13:00 0.0 l/m2 in 6 Std. -
Di, 22.01. 7:00 0.0 l/m2 in 12 Std. -
Di, 22.01. 1:00 0.0 l/m2 in 6 Std. -
Mo, 21.01. 19:00 0.1 l/m2 in 12 Std. -
Ortszeit Niederschlagsmenge Niederschlagsart
Mi, 23.01. 14:10 keine Meldung -
Mi, 23.01. 14:00 0.0 l/m2 in 1 Std. -
Mi, 23.01. 13:50 keine Meldung -
Mi, 23.01. 13:40 keine Meldung -
Mi, 23.01. 13:30 0.0 l/m2 in 1 Std. -
Mi, 23.01. 13:20 keine Meldung -
Mi, 23.01. 13:00 0.0 l/m2 in 1 Std. -
Mi, 23.01. 12:30 0.0 l/m2 in 1 Std. -
Mi, 23.01. 12:00 0.0 l/m2 in 1 Std. -
Mi, 23.01. 11:30 0.0 l/m2 in 1 Std. -
Mi, 23.01. 11:00 0.0 l/m2 in 1 Std. -
Ortszeit Stärke Spitze Richtung
km/h Bft. km/h Grad Sektor
Mi, 23.01. 13:00 2 1 9 40° NO
Mi, 23.01. 7:00 6 1 11 90° O
Mi, 23.01. 1:00 4 1 14 220° SW
Di, 22.01. 19:00 11 2 22 60° NO
Di, 22.01. 13:00 7 2 15 170° S
Di, 22.01. 7:00 2 1 17 100° O
Di, 22.01. 1:00 4 1 11 350° N
Mo, 21.01. 19:00 6 1 9 180° S
Ortszeit Stärke Spitze Richtung
km/h Bft. km/h Grad Sektor
Mi, 23.01. 14:10 4 1 - 60° NO
Mi, 23.01. 14:00 6 1 9 60° NO
Mi, 23.01. 13:50 6 1 - 60° NO
Mi, 23.01. 13:40 7 2 - 60° NO
Mi, 23.01. 13:30 2 1 4 100° O
Mi, 23.01. 13:20 2 1 - 100° O
Mi, 23.01. 13:00 2 1 9 40° NO
Mi, 23.01. 12:30 6 1 9 110° O
Mi, 23.01. 12:00 2 1 6 10° N
Mi, 23.01. 11:30 - - - - -
Mi, 23.01. 11:00 - - - - -
Ortszeit Untergrenze Bedeckung Gattung
total tief tief mittel hoch
Mi, 23.01. 13:00 <30 m 7/8 0/8 - - -
Mi, 23.01. 7:00 <30 m 8/8 0/8 - - -
Mi, 23.01. 1:00 <30 m 8/8 0/8 - - -
Di, 22.01. 19:00 <30 m 8/8 0/8 - - -
Di, 22.01. 13:00 30 m 8/8 - - - -
Di, 22.01. 7:00 <30 m 8/8 0/8 - - -
Di, 22.01. 1:00 <30 m 8/8 0/8 - - -
Mo, 21.01. 19:00 <30 m 8/8 0/8 - - -
Ortszeit Bedeckungsgrad in Achtel und Wolkenuntergrenze
Mi, 23.01. 14:10 1(60m) 7(1800m) 8(4200m)
Mi, 23.01. 14:00 7(60m) 8(1800m) 8(4200m)
Mi, 23.01. 13:50 7(60m) 8(1800m)
Mi, 23.01. 13:40 7(60m)
Mi, 23.01. 13:30 6(90m) 7(1800m)
Mi, 23.01. 13:20 6(90m) 7(1800m)
Mi, 23.01. 13:00 1(<30m) 6(1800m) 7(2100m)
Mi, 23.01. 12:30 3(30m) 8(3000m) 8(4200m)
Mi, 23.01. 12:00 7(2100m) 8(3300m) 8(4500m)
Mi, 23.01. 11:30 5(1800m) 7(2400m) 8(3300m)
Mi, 23.01. 11:00 3(30m) 7(3000m) 8(5400m)
Ortszeit Stationsdruck (hPa) Tendenz (hPa in 3 Std.)
Mi, 23.01. 13:00 881 - 1,0
Mi, 23.01. 7:00 883 - 1,4
Mi, 23.01. 1:00 886 - 1,5
Di, 22.01. 19:00 889 - 2,0
Di, 22.01. 13:00 894 - 2,1
Di, 22.01. 7:00 897 - 1,4
Di, 22.01. 1:00 901 - 0,5
Mo, 21.01. 19:00 902 - 0,1
Ortszeit Stationsdruck (hPa) Tendenz (hPa in 3 Std.)
Mi, 23.01. 14:10 881 keine Meldung
Mi, 23.01. 14:00 881 - 0,7
Mi, 23.01. 13:50 881 keine Meldung
Mi, 23.01. 13:40 881 keine Meldung
Mi, 23.01. 13:30 881 - 0,8
Mi, 23.01. 13:20 881 keine Meldung
Mi, 23.01. 13:00 881 - 1,0
Mi, 23.01. 12:30 881 - 1,0
Mi, 23.01. 12:00 881 - 1,1
Mi, 23.01. 11:30 882 - 0,9
Mi, 23.01. 11:00 882 - 0,8
Ortszeit Schneehöhe (cm)
Mi, 23.01. 13:00 53
Mi, 23.01. 7:00 53
Mi, 23.01. 1:00 54
Di, 22.01. 19:00 54
Di, 22.01. 13:00 54
Di, 22.01. 7:00 54
Di, 22.01. 1:00 55
Mo, 21.01. 19:00 55
Ortszeit Schneehöhe (cm)
Mi, 23.01. 14:10 53
Mi, 23.01. 14:00 53
Mi, 23.01. 13:50 53
Mi, 23.01. 13:40 53
Mi, 23.01. 13:30 53
Mi, 23.01. 13:20 53
Mi, 23.01. 13:00 53
Mi, 23.01. 12:30 53
Mi, 23.01. 12:00 53
Mi, 23.01. 11:30 -
Mi, 23.01. 11:00 53
Link zu dieser Seite / Seite empfehlen

Das Wetter in ...